Weather History for Milton, FL

Change the Weather History Date:

Thursday, November 10, 2011

  Actual Average (KNSE) Record (KNSE)
Temperature  
Mean Temperature 52 °F -  
Max Temperature 57 °F 68 °F 80 °F (2010)
Min Temperature 46 °F 49 °F 37 °F (2008)
Degree Days  
Heating Degree Days 12    
Growing Degree Days 2 (Base 50)    
Moisture  
Dew Point 37 °F    
Average Humidity 60    
Maximum Humidity 89    
Minimum Humidity 36    
Precipitation  
Precipitation 0.00 in - - ()
Sea Level Pressure  
Sea Level Pressure 30.09 in    
Wind  
Wind Speed 14 mph (NNW)    
Max Wind Speed 21 mph    
Max Gust Speed 30 mph    
Visibility 10 miles    
Events      
Averages and records for this station are not official NWS values.
T = Trace of Precipitation, MM = Missing Value Source: NWS Daily Summary

Daily Weather History Graph

Daily Weather History Graph

Search for Another Location

Airport:

Trip Planner

Search our weather history database for the weather conditions in past years. The results will help you decide how hot, cold, wet, or windy it might be!

Date:

Astronomy

Nov. 10, 2011 Rise Set
Actual Time 6:09 AM CST 4:53 PM CST
Civil Twilight 5:44 AM CST 5:18 PM CST
Nautical Twilight 5:15 AM CST 5:47 PM CST
Astronomical Twilight 4:47 AM CST 6:16 PM CST
Moon 4:45 PM CST (11/10) 5:58 AM CST (11/10)
Length of Visible Light 11h 34m
Length of Day
10h 43m
Full, 100% of the Moon is Illuminated
Nov 10
Full
Nov 10
Full
Nov 18
Last Quarter
Nov 25
New
Dec 2
First Quarter

Hourly Weather History & Observations

Time (CST) Temp. Dew Point Humidity Pressure Visibility Wind Dir Wind Speed Gust Speed Precip Events Conditions
12:56 AM 55.0 °F 52.0 °F 89% 30.00 in 10.0 mi NNW 11.5 mph 17.3 mph N/A   Clear
1:56 AM 53.1 °F 48.9 °F 86% 30.01 in 10.0 mi NNW 13.8 mph 21.9 mph N/A   Clear
2:56 AM 52.0 °F 46.9 °F 83% 30.03 in 10.0 mi NNW 16.1 mph 23.0 mph N/A   Clear
3:56 AM 50.0 °F 45.0 °F 83% 30.01 in 10.0 mi NNW 15.0 mph - N/A   Clear
4:56 AM 48.9 °F 43.0 °F 80% 30.04 in 10.0 mi NNW 15.0 mph - N/A   Clear
5:56 AM 48.0 °F 42.1 °F 80% 30.07 in 10.0 mi NNW 17.3 mph 21.9 mph N/A   Clear
6:56 AM 48.0 °F 41.0 °F 77% 30.09 in 10.0 mi NNW 16.1 mph 21.9 mph N/A   Clear
7:56 AM 48.9 °F 39.9 °F 71% 30.10 in 10.0 mi North 17.3 mph - N/A   Clear
8:56 AM 48.9 °F 39.0 °F 69% 30.13 in 10.0 mi NNW 20.7 mph 27.6 mph N/A   Scattered Clouds
9:56 AM 48.9 °F 37.0 °F 64% 30.13 in 10.0 mi North 16.1 mph 25.3 mph N/A   Overcast
10:56 AM 53.1 °F 33.1 °F 47% 30.07 in 10.0 mi North 18.4 mph 29.9 mph N/A   Clear
11:56 AM 53.1 °F 32.0 °F 45% 30.11 in 10.0 mi NNW 13.8 mph 25.3 mph N/A   Overcast
12:56 PM 55.0 °F 33.1 °F 43% 30.07 in 10.0 mi NNW 18.4 mph 24.2 mph N/A   Clear
1:56 PM 55.9 °F 33.1 °F 42% 30.07 in 10.0 mi North 18.4 mph - N/A   Clear
2:56 PM 57.0 °F 32.0 °F 39% 30.05 in 10.0 mi North 17.3 mph 26.5 mph N/A   Clear
3:56 PM 57.9 °F 30.9 °F 36% 30.06 in 10.0 mi NNW 13.8 mph 23.0 mph N/A   Clear
4:56 PM 53.1 °F 33.1 °F 47% 30.08 in 10.0 mi NNW 8.1 mph - N/A   Clear
5:56 PM 50.0 °F 33.1 °F 52% 30.10 in 10.0 mi NW 6.9 mph - N/A   Clear
6:56 PM 50.0 °F 30.0 °F 46% 30.12 in 10.0 mi NNW 9.2 mph - N/A   Clear
7:56 PM 50.0 °F 28.0 °F 43% 30.14 in 10.0 mi NNW 12.7 mph - N/A   Clear
8:56 PM 46.9 °F 27.0 °F 46% 30.16 in 10.0 mi NNW 6.9 mph - N/A   Clear
9:56 PM - - N/A% 30.21 in - North - - N/A   Unknown
10:56 PM - - N/A% 30.21 in - North - - N/A   Unknown
11:56 PM - - N/A% 30.21 in - North - - N/A   Unknown